This is the latest recevied weather packets stored in our database for station/object K7LDN-13. If no packets are shown the sender has not sent any weather packets the latest 10 day(s).
| Time | Temp. | Humidity | Pressure | Rain* | Wind** | Luminosity | Snow |
|---|---|---|---|---|---|---|---|
| 1777312984 | 3.89° C | 93% | 1016.2 hPa | 0.51 mm | - | 143 W/m² | - |
| 1777312681 | 3.89° C | 93% | 1016.4 hPa | 0.51 mm | - | 128 W/m² | - |
| 1777312377 | 3.89° C | 93% | 1016.5 hPa | 1.27 mm | - | 125 W/m² | - |
| 1777312075 | 3.89° C | 93% | 1016.3 hPa | 1.27 mm | - | 115 W/m² | - |
| 1777311771 | 3.89° C | 93% | 1016.2 hPa | 0.51 mm | - | 112 W/m² | - |
| 1777311469 | 3.89° C | 93% | 1016.3 hPa | 0 mm | - | 106 W/m² | - |
| 1777311165 | 3.89° C | 93% | 1016.1 hPa | 0.51 mm | - | 96 W/m² | - |
| 1777310864 | 3.89° C | 93% | 1016.2 hPa | 0.51 mm | - | 68 W/m² | - |
| 1777310561 | 3.89° C | 93% | 1016.2 hPa | 0 mm | - | 72 W/m² | - |
| 1777310258 | 3.89° C | 93% | 1016.1 hPa | 0 mm | - | 80 W/m² | - |
| 1777309956 | 3.89° C | 93% | 1016.3 hPa | 0 mm | - | 61 W/m² | - |
| 1777309653 | 3.89° C | 93% | 1016.3 hPa | 0 mm | - | 92 W/m² | - |
| 1777309350 | 3.89° C | 93% | 1016.2 hPa | 0.51 mm | - | 123 W/m² | - |
| 1777309049 | 3.89° C | 93% | 1016.1 hPa | 0.51 mm | - | 141 W/m² | - |
| 1777308745 | 4.44° C | 93% | 1015.9 hPa | 0 mm | - | 194 W/m² | - |
| 1777308440 | 3.89° C | 93% | 1015.8 hPa | 0 mm | - | 167 W/m² | - |
| 1777308136 | 3.89° C | 93% | 1015.8 hPa | 0 mm | - | 131 W/m² | - |
| 1777307833 | 3.89° C | 93% | 1015.8 hPa | 0.51 mm | - | 173 W/m² | - |
| 1777307531 | 3.89° C | 93% | 1015.7 hPa | 1.27 mm | - | 173 W/m² | - |
| 1777307227 | 4.44° C | 93% | 1015.6 hPa | 1.27 mm | - | 196 W/m² | - |
| 1777306925 | 4.44° C | 93% | 1015.6 hPa | 1.27 mm | - | 189 W/m² | - |
| 1777306622 | 4.44° C | 93% | 1015.6 hPa | 1.27 mm | - | 185 W/m² | - |
| 1777306317 | 4.44° C | 93% | 1015.6 hPa | 1.27 mm | - | 172 W/m² | - |
| 1777306012 | 4.44° C | 93% | 1015.5 hPa | 1.78 mm | - | 140 W/m² | - |
| 1777305710 | 4.44° C | 93% | 1015.6 hPa | 2.29 mm | - | 115 W/m² | - |
* Rain latest hour (hover to see other rain measurements)
** Current wind speed in m/s (hover to see current wind gust speed)